Time,TemperatureF,DewpointF,PressureIn,WindDirection,WindDirectionDegrees,WindSpeedMPH,WindSpeedGustMPH,Humidity,HourlyPrecipIn,Conditions,Clouds,dailyrainin,SoftwareType,DateUTC
2013-02-08 00:01:00,32.0,24.0,30.37,North,-999,-999.0,-999.0,72,-99.99,,,-99.99,,2013-02-08 05:01:00,
2013-02-08 00:11:00,32.0,24.0,30.37,North,-999,-999.0,-999.0,72,-99.99,,,-99.99,,2013-02-08 05:11:00,
2013-02-08 00:21:00,33.0,25.0,30.36,North,-999,-999.0,-999.0,73,-99.99,,,-99.99,,2013-02-08 05:21:00,
2013-02-08 00:31:00,33.0,25.0,30.35,North,-999,-999.0,-999.0,73,-99.99,,,-99.99,,2013-02-08 05:31:00,
2013-02-08 00:41:00,33.0,25.0,30.35,North,-999,-999.0,-999.0,73,-99.99,,,-99.99,,2013-02-08 05:41:00,
2013-02-08 00:51:00,33.0,25.0,30.35,North,-999,-999.0,-999.0,73,-99.99,,,-99.99,,2013-02-08 05:51:00,
2013-02-08 01:01:00,33.0,25.0,30.35,North,-999,-999.0,-999.0,73,-99.99,,,-99.99,,2013-02-08 06:01:00,
2013-02-08 01:11:00,33.0,26.0,30.33,North,-999,-999.0,-999.0,74,-99.99,,,-99.99,,2013-02-08 06:11:00,
2013-02-08 01:21:00,33.0,26.0,30.33,North,-999,-999.0,-999.0,74,-99.99,,,-99.99,,2013-02-08 06:21:00,
2013-02-08 01:31:00,33.0,26.0,30.33,North,-999,-999.0,-999.0,74,-99.99,,,-99.99,,2013-02-08 06:31:00,
2013-02-08 01:41:00,33.0,26.0,30.32,North,-999,-999.0,-999.0,75,-99.99,,,-99.99,,2013-02-08 06:41:00,
2013-02-08 01:51:00,33.0,26.0,30.32,North,-999,-999.0,-999.0,75,-99.99,,,-99.99,,2013-02-08 06:51:00,
2013-02-08 02:01:00,33.0,26.0,30.32,North,-999,-999.0,-999.0,75,-99.99,,,-99.99,,2013-02-08 07:01:00,
2013-02-08 02:11:00,33.0,26.0,30.32,North,-999,-999.0,-999.0,75,-99.99,,,-99.99,,2013-02-08 07:11:00,
2013-02-08 02:21:00,33.0,26.0,30.31,North,-999,-999.0,-999.0,75,-99.99,,,-99.99,,2013-02-08 07:21:00,
2013-02-08 02:31:00,33.0,26.0,30.31,North,-999,-999.0,-999.0,75,-99.99,,,-99.99,,2013-02-08 07:31:00,
2013-02-08 02:41:00,33.0,26.0,30.30,North,-999,-999.0,-999.0,75,-99.99,,,-99.99,,2013-02-08 07:41:00,
2013-02-08 02:51:00,33.0,26.0,30.29,North,-999,-999.0,-999.0,75,-99.99,,,-99.99,,2013-02-08 07:51:00,
2013-02-08 03:01:00,33.0,26.0,30.29,North,-999,-999.0,-999.0,75,-99.99,,,-99.99,,2013-02-08 08:01:00,
2013-02-08 03:11:00,33.0,26.0,30.29,North,-999,-999.0,-999.0,75,-99.99,,,-99.99,,2013-02-08 08:11:00,
2013-02-08 03:21:00,33.0,26.0,30.29,North,-999,-999.0,-999.0,75,-99.99,,,-99.99,,2013-02-08 08:21:00,
2013-02-08 03:32:00,33.0,26.0,30.29,North,-999,-999.0,-999.0,75,-99.99,,,-99.99,,2013-02-08 08:32:00,
2013-02-08 03:41:00,33.0,26.0,30.27,North,-999,-999.0,-999.0,76,-99.99,,,-99.99,,2013-02-08 08:41:00,
2013-02-08 03:52:00,33.0,26.0,30.27,North,-999,-999.0,-999.0,76,-99.99,,,-99.99,,2013-02-08 08:52:00,
2013-02-08 04:02:00,33.0,26.0,30.27,North,-999,-999.0,-999.0,76,-99.99,,,-99.99,,2013-02-08 09:02:00,
2013-02-08 04:11:00,33.0,26.0,30.25,North,-999,-999.0,-999.0,76,-99.99,,,-99.99,,2013-02-08 09:11:00,
2013-02-08 04:21:00,33.0,26.0,30.25,North,-999,-999.0,-999.0,76,-99.99,,,-99.99,,2013-02-08 09:21:00,
2013-02-08 04:31:00,33.0,26.0,30.25,North,-999,-999.0,-999.0,76,-99.99,,,-99.99,,2013-02-08 09:31:00,
2013-02-08 04:41:00,33.0,27.0,30.23,North,-999,-999.0,-999.0,77,-99.99,,,-99.99,,2013-02-08 09:41:00,
2013-02-08 04:51:00,33.0,27.0,30.23,North,-999,-999.0,-999.0,77,-99.99,,,-99.99,,2013-02-08 09:51:00,
2013-02-08 05:01:00,33.0,27.0,30.23,North,-999,-999.0,-999.0,77,-99.99,,,-99.99,,2013-02-08 10:01:00,
2013-02-08 05:11:00,33.0,28.0,30.22,North,-999,-999.0,-999.0,82,-99.99,,,-99.99,,2013-02-08 10:11:00,
2013-02-08 05:21:00,33.0,28.0,30.22,North,-999,-999.0,-999.0,82,-99.99,,,-99.99,,2013-02-08 10:21:00,
2013-02-08 05:31:00,33.0,28.0,30.22,North,-999,-999.0,-999.0,82,-99.99,,,-99.99,,2013-02-08 10:31:00,
2013-02-08 05:41:00,32.0,29.0,30.21,North,-999,-999.0,-999.0,86,-99.99,,,-99.99,,2013-02-08 10:41:00,
2013-02-08 05:51:00,32.0,29.0,30.21,North,-999,-999.0,-999.0,86,-99.99,,,-99.99,,2013-02-08 10:51:00,
2013-02-08 06:01:00,32.0,29.0,30.21,North,-999,-999.0,-999.0,86,-99.99,,,-99.99,,2013-02-08 11:01:00,
2013-02-08 06:11:00,32.0,29.0,30.21,North,-999,-999.0,-999.0,86,-99.99,,,-99.99,,2013-02-08 11:11:00,
2013-02-08 06:21:00,32.0,29.0,30.19,North,-999,-999.0,-999.0,87,-99.99,,,-99.99,,2013-02-08 11:21:00,
2013-02-08 06:32:00,32.0,29.0,30.19,North,-999,-999.0,-999.0,87,-99.99,,,-99.99,,2013-02-08 11:32:00,
2013-02-08 06:41:00,32.0,29.0,30.19,North,-999,-999.0,-999.0,88,-99.99,,,-99.99,,2013-02-08 11:41:00,
2013-02-08 06:52:00,33.0,30.0,30.17,North,-999,-999.0,-999.0,88,-99.99,,,-99.99,,2013-02-08 11:52:00,
2013-02-08 07:01:00,33.0,30.0,30.17,North,-999,-999.0,-999.0,88,-99.99,,,-99.99,,2013-02-08 12:01:00,
2013-02-08 07:11:00,32.0,30.0,30.16,North,-999,-999.0,-999.0,89,-99.99,,,-99.99,,2013-02-08 12:11:00,
2013-02-08 07:21:00,32.0,30.0,30.16,North,-999,-999.0,-999.0,89,-99.99,,,-99.99,,2013-02-08 12:21:00,
2013-02-08 07:32:00,32.0,30.0,30.16,North,-999,-999.0,-999.0,89,-99.99,,,-99.99,,2013-02-08 12:32:00,
2013-02-08 07:41:00,32.0,30.0,30.15,North,-999,-999.0,-999.0,90,-99.99,,,-99.99,,2013-02-08 12:41:00,
2013-02-08 07:52:00,32.0,30.0,30.15,North,-999,-999.0,-999.0,90,-99.99,,,-99.99,,2013-02-08 12:52:00,
2013-02-08 08:01:00,32.0,30.0,30.15,North,-999,-999.0,-999.0,90,-99.99,,,-99.99,,2013-02-08 13:01:00,
2013-02-08 08:11:00,32.0,30.0,30.15,North,-999,-999.0,-999.0,90,-99.99,,,-99.99,,2013-02-08 13:11:00,
2013-02-08 08:21:00,32.0,31.0,30.14,North,-999,-999.0,-999.0,93,-99.99,,,-99.99,,2013-02-08 13:21:00,
2013-02-08 08:31:00,32.0,31.0,30.13,North,-999,-999.0,-999.0,94,-99.99,,,-99.99,,2013-02-08 13:31:00,
2013-02-08 08:42:00,33.0,32.0,30.12,North,-999,-999.0,-999.0,95,-99.99,,,-99.99,,2013-02-08 13:42:00,
2013-02-08 08:51:00,33.0,32.0,30.12,North,-999,-999.0,-999.0,95,-99.99,,,-99.99,,2013-02-08 13:51:00,
2013-02-08 09:01:00,33.0,32.0,30.12,North,-999,-999.0,-999.0,95,-99.99,,,-99.99,,2013-02-08 14:01:00,
2013-02-08 09:11:00,33.0,32.0,30.12,North,-999,-999.0,-999.0,95,-99.99,,,-99.99,,2013-02-08 14:11:00,
2013-02-08 09:32:00,34.0,33.0,30.09,North,-999,-999.0,-999.0,95,-99.99,,,-99.99,,2013-02-08 14:32:00,
2013-02-08 09:41:00,34.0,33.0,30.09,North,-999,-999.0,-999.0,95,-99.99,,,-99.99,,2013-02-08 14:41:00,
2013-02-08 09:52:00,33.0,33.0,30.07,North,-999,-999.0,-999.0,96,-99.99,,,-99.99,,2013-02-08 14:52:00,
2013-02-08 10:01:00,33.0,33.0,30.07,North,-999,-999.0,-999.0,96,-99.99,,,-99.99,,2013-02-08 15:01:00,
2013-02-08 10:11:00,33.0,33.0,30.07,North,-999,-999.0,-999.0,96,-99.99,,,-99.99,,2013-02-08 15:11:00,
2013-02-08 10:21:00,33.0,33.0,30.07,North,-999,-999.0,-999.0,96,-99.99,,,-99.99,,2013-02-08 15:21:00,
2013-02-08 10:31:00,33.0,33.0,30.04,North,-999,-999.0,-999.0,97,-99.99,,,-99.99,,2013-02-08 15:31:00,
2013-02-08 10:41:00,33.0,33.0,30.04,North,-999,-999.0,-999.0,97,-99.99,,,-99.99,,2013-02-08 15:41:00,
2013-02-08 10:51:00,33.0,33.0,30.03,North,-999,-999.0,-999.0,97,-99.99,,,-99.99,,2013-02-08 15:51:00,
2013-02-08 11:01:00,33.0,33.0,30.03,North,-999,-999.0,-999.0,97,-99.99,,,-99.99,,2013-02-08 16:01:00,
2013-02-08 11:11:00,33.0,32.0,30.01,North,-999,-999.0,-999.0,97,-99.99,,,-99.99,,2013-02-08 16:11:00,
2013-02-08 11:21:00,33.0,32.0,30.01,North,-999,-999.0,-999.0,97,-99.99,,,-99.99,,2013-02-08 16:21:00,
2013-02-08 11:32:00,33.0,33.0,30.00,North,-999,-999.0,-999.0,98,-99.99,,,-99.99,,2013-02-08 16:32:00,
2013-02-08 11:41:00,33.0,33.0,30.00,North,-999,-999.0,-999.0,98,-99.99,,,-99.99,,2013-02-08 16:41:00,
2013-02-08 11:51:00,33.0,32.0,29.98,North,-999,-999.0,-999.0,97,-99.99,,,-99.99,,2013-02-08 16:51:00,
2013-02-08 12:01:00,33.0,32.0,29.98,North,-999,-999.0,-999.0,97,-99.99,,,-99.99,,2013-02-08 17:01:00,
2013-02-08 12:11:00,33.0,32.0,29.98,North,-999,-999.0,-999.0,97,-99.99,,,-99.99,,2013-02-08 17:11:00,
2013-02-08 12:21:00,33.0,33.0,29.94,North,-999,-999.0,-999.0,99,-99.99,,,-99.99,,2013-02-08 17:21:00,
2013-02-08 12:31:00,33.0,33.0,29.94,North,-999,-999.0,-999.0,99,-99.99,,,-99.99,,2013-02-08 17:31:00,
2013-02-08 12:41:00,33.0,33.0,29.94,North,-999,-999.0,-999.0,99,-99.99,,,-99.99,,2013-02-08 17:41:00,
2013-02-08 12:52:00,33.0,32.0,29.93,North,-999,-999.0,-999.0,98,-99.99,,,-99.99,,2013-02-08 17:52:00,
2013-02-08 13:01:00,33.0,32.0,29.93,North,-999,-999.0,-999.0,98,-99.99,,,-99.99,,2013-02-08 18:01:00,
2013-02-08 13:11:00,32.0,32.0,29.90,North,-999,-999.0,-999.0,98,-99.99,,,-99.99,,2013-02-08 18:11:00,
2013-02-08 13:22:00,32.0,32.0,29.90,North,-999,-999.0,-999.0,98,-99.99,,,-99.99,,2013-02-08 18:22:00,
2013-02-08 13:32:00,32.0,32.0,29.90,North,-999,-999.0,-999.0,98,-99.99,,,-99.99,,2013-02-08 18:32:00,
2013-02-08 13:41:00,32.0,32.0,29.85,North,-999,-999.0,-999.0,99,-99.99,,,-99.99,,2013-02-08 18:41:00,
2013-02-08 13:52:00,32.0,32.0,29.85,North,-999,-999.0,-999.0,99,-99.99,,,-99.99,,2013-02-08 18:52:00,
2013-02-08 14:01:00,32.0,32.0,29.85,North,-999,-999.0,-999.0,99,-99.99,,,-99.99,,2013-02-08 19:01:00,
2013-02-08 14:11:00,32.0,32.0,29.85,North,-999,-999.0,-999.0,99,-99.99,,,-99.99,,2013-02-08 19:11:00,
2013-02-08 14:21:00,32.0,32.0,29.83,North,-999,-999.0,-999.0,98,-99.99,,,-99.99,,2013-02-08 19:21:00,
2013-02-08 14:31:00,32.0,32.0,29.83,North,-999,-999.0,-999.0,98,-99.99,,,-99.99,,2013-02-08 19:31:00,
2013-02-08 14:41:00,32.0,32.0,29.83,North,-999,-999.0,-999.0,98,-99.99,,,-99.99,,2013-02-08 19:41:00,
2013-02-08 14:51:00,32.0,32.0,29.80,North,-999,-999.0,-999.0,99,-99.99,,,-99.99,,2013-02-08 19:51:00,
2013-02-08 15:00:00,33.0,32.0,29.76,North,-999,-999.0,-999.0,99,-99.99,,,-99.99,,2013-02-08 20:00:00,
2013-02-08 15:01:00,32.0,32.0,29.80,North,-999,-999.0,-999.0,99,-99.99,,,-99.99,,2013-02-08 20:01:00,
2013-02-08 15:11:00,32.0,32.0,29.80,North,-999,-999.0,-999.0,99,-99.99,,,-99.99,,2013-02-08 20:11:00,
2013-02-08 15:41:00,33.0,32.0,29.76,North,-999,-999.0,-999.0,99,-99.99,,,-99.99,,2013-02-08 20:41:00,
2013-02-08 15:52:00,33.0,32.0,29.76,North,-999,-999.0,-999.0,99,-99.99,,,-99.99,,2013-02-08 20:52:00,
2013-02-08 16:32:00,33.0,32.0,29.72,North,-999,-999.0,-999.0,99,-99.99,,,-99.99,,2013-02-08 21:32:00,
2013-02-08 16:41:00,33.0,32.0,29.72,North,-999,-999.0,-999.0,99,-99.99,,,-99.99,,2013-02-08 21:41:00,
2013-02-08 17:41:00,32.0,32.0,29.71,North,-999,-999.0,-999.0,100,-99.99,,,-99.99,,2013-02-08 22:41:00,
2013-02-08 17:51:00,32.0,32.0,29.70,North,-999,-999.0,-999.0,100,-99.99,,,-99.99,,2013-02-08 22:51:00,
2013-02-08 18:01:00,32.0,32.0,29.70,North,-999,-999.0,-999.0,100,-99.99,,,-99.99,,2013-02-08 23:01:00,
2013-02-08 18:11:00,32.0,32.0,29.70,North,-999,-999.0,-999.0,100,-99.99,,,-99.99,,2013-02-08 23:11:00,
2013-02-08 18:21:00,32.0,32.0,29.70,North,-999,-999.0,-999.0,100,-99.99,,,-99.99,,2013-02-08 23:21:00,
2013-02-08 18:31:00,32.0,32.0,29.69,North,-999,-999.0,-999.0,100,-99.99,,,-99.99,,2013-02-08 23:31:00,
2013-02-08 18:41:00,32.0,32.0,29.68,North,-999,-999.0,-999.0,100,-99.99,,,-99.99,,2013-02-08 23:41:00,
2013-02-08 18:52:00,31.0,31.0,29.67,North,-999,-999.0,-999.0,100,-99.99,,,-99.99,,2013-02-08 23:52:00,
2013-02-08 19:01:00,31.0,31.0,29.67,North,-999,-999.0,-999.0,100,-99.99,,,-99.99,,2013-02-09 00:01:00,
2013-02-08 19:11:00,31.0,31.0,29.67,North,-999,-999.0,-999.0,100,-99.99,,,-99.99,,2013-02-09 00:11:00,
2013-02-08 19:31:00,31.0,31.0,29.66,North,-999,-999.0,-999.0,100,-99.99,,,-99.99,,2013-02-09 00:31:00,
2013-02-08 19:41:00,31.0,31.0,29.65,North,-999,-999.0,-999.0,100,-99.99,,,-99.99,,2013-02-09 00:41:00,
2013-02-08 19:51:00,31.0,31.0,29.65,North,-999,-999.0,-999.0,100,-99.99,,,-99.99,,2013-02-09 00:51:00,
2013-02-08 20:01:00,31.0,31.0,29.65,North,-999,-999.0,-999.0,100,-99.99,,,-99.99,,2013-02-09 01:01:00,
2013-02-08 20:11:00,31.0,31.0,29.65,North,-999,-999.0,-999.0,100,-99.99,,,-99.99,,2013-02-09 01:11:00,